Thunderstorms From: 25-05-2018 15:00 Until: 26-05-2018 15:00 warning for: Thunderstorms Level: Yellow info button

Although rather usual in this region, locally or potentially dangerous phenomena are expected. (such as local winds, summer thunderstorms, rising streams or high waves) Be aware and pay attention to the latest weather updates, especially if you carry out activities exposed to weather or close to a stream or shoreline. 


Meteo18 Weather Cam more information Meteo18 Weather Cam


warning for Thunderstorms more information blitzortung!


Rain radar more information rain snow radar


Visit our other weather sites:

Template documentation
and downloads

And another site



Weather Underground History page Text

Daily Summary for May 25, 2018 Units:  Metric    English   Both
« Previous Day
Next Day »
Daily Weekly Monthly Yearly Custom
  Current: High: Low: Average:
Temperature: -3.2 °C -17.8 °C -10.3 °C -6.9 °C
Dew Point: -8.3 °C -17.8 °C -11.3 °C -9.8 °C
Humidity: 57 % Humidity % 51 % 72 %
Wind Speed: 2.3 km/h 0 km/h 0 km/h 2.7 km/h
Wind Gust: 5.1 km/h 0 km/h - -
Wind:SSE - - ESE
Pressure: 34361.1 hPa 0 hPa 34361.1 hPa -
Precipitation: 0 mm      
Historical Graphs
 
 
Tabular Data for May 25, 2018
Time Temperature Dew Point Pressure Wind Wind Speed Wind Gust Humidity Rainfall Rate (Hourly)
-17.8 °C -17.8 °C 0 hPa Calm     Humidity % 0 mm
00:01 -7.6 °C -10.6 °C 34428.8 hPa Calm   2.6 km/h 71 % 0 mm
00:07 -7.5 °C -10.5 °C 34428.8 hPa NNW 2.3 km/h 5.1 km/h 71 % 0 mm
00:13 -7.4 °C -10.5 °C 34428.8 hPa NW 2.3 km/h 5.1 km/h 70 % 0 mm
00:19 -7.4 °C -10.5 °C 34428.8 hPa NW 2.3 km/h 5.1 km/h 70 % 0 mm
00:25 -7.4 °C -10.5 °C 34428.8 hPa Calm   2.6 km/h 70 % 0 mm
00:31 -7.4 °C -10.6 °C 34428.8 hPa Calm   2.6 km/h 70 % 0 mm
00:37 -7.5 °C -10.3 °C 34428.8 hPa Calm     72 % 0 mm
00:43 -7.6 °C -10.4 °C 34428.8 hPa Calm     72 % 0 mm
00:49 -7.7 °C -10.2 °C 34428.8 hPa Calm   2.6 km/h 75 % 0 mm
00:55 -7.9 °C -10.3 °C 34428.8 hPa Calm     76 % 0 mm
01:01 -7.9 °C -10.1 °C 34428.8 hPa Calm     78 % 0 mm
01:07 -8.1 °C -10.3 °C 34428.8 hPa Calm     77 % 0 mm
01:13 -8.1 °C -10.2 °C 34418.7 hPa Calm     78 % 0 mm
01:19 -8 °C -10.3 °C 34418.7 hPa Calm     77 % 0 mm
01:25 -8.1 °C -10.1 °C 34418.7 hPa Calm     79 % 0 mm
01:31 -8.2 °C -10.1 °C 34418.7 hPa Calm     81 % 0 mm
01:37 -8.3 °C -10 °C 34418.7 hPa Calm     82 % 0 mm
01:43 -8.4 °C -10.2 °C 34418.7 hPa Calm     81 % 0 mm
01:49 -8.3 °C -10.1 °C 34418.7 hPa Calm     81 % 0 mm
01:55 -8.3 °C -9.9 °C 34418.7 hPa Calm     83 % 0 mm
02:01 -8.4 °C -10.1 °C 34418.7 hPa ENE 2.3 km/h 5.1 km/h 83 % 0 mm
02:07 -8.5 °C -10.2 °C 34418.7 hPa Calm     82 % 0 mm
02:13 -8.5 °C -10.3 °C 34418.7 hPa Calm     81 % 0 mm
02:19 -8.5 °C -10.1 °C 34418.7 hPa Calm     83 % 0 mm
02:26 -8.6 °C -10.1 °C 34418.7 hPa Calm     84 % 0 mm
02:32 -8.6 °C -10.1 °C 34418.7 hPa Calm     84 % 0 mm
02:38 -8.7 °C -10.2 °C 34418.7 hPa Calm     84 % 0 mm
02:44 -8.8 °C -10.3 °C 34418.7 hPa Calm     84 % 0 mm
02:50 -8.8 °C -10.3 °C 34418.7 hPa Calm     84 % 0 mm
02:56 -8.8 °C -10.4 °C 34418.7 hPa Calm     83 % 0 mm
03:02 -8.8 °C -10.4 °C 34418.7 hPa Calm     83 % 0 mm
03:08 -8.8 °C -10.3 °C 34418.7 hPa Calm     84 % 0 mm
03:14 -8.9 °C -10.4 °C 34418.7 hPa Calm     84 % 0 mm
03:20 -9 °C -10.4 °C 34418.7 hPa Calm     85 % 0 mm
03:26 -9 °C -10.4 °C 34405.1 hPa Calm   2.6 km/h 85 % 0 mm
03:32 -8.9 °C -10.4 °C 34405.1 hPa Calm     84 % 0 mm
03:38 -8.9 °C -10.3 °C 34405.1 hPa Calm   2.6 km/h 85 % 0 mm
03:44 -9.1 °C -10.4 °C 34405.1 hPa WNW 2.3 km/h 2.6 km/h 85 % 0 mm
03:50 -9.1 °C -10.4 °C 34405.1 hPa Calm     86 % 0 mm
03:56 -9.2 °C -10.4 °C 34405.1 hPa Calm     87 % 0 mm
04:02 -9.2 °C -10.5 °C 34405.1 hPa Calm   5.1 km/h 86 % 0 mm
04:08 -9.2 °C -10.4 °C 34405.1 hPa North 2.3 km/h 2.6 km/h 87 % 0 mm
04:14 -9.2 °C -10.3 °C 34405.1 hPa Calm   2.6 km/h 88 % 0 mm
04:20 -9.3 °C -10.6 °C 34405.1 hPa Calm     87 % 0 mm
04:27 -9.4 °C -10.6 °C 34405.1 hPa NW 2.3 km/h 2.6 km/h 88 % 0 mm
04:33 -9.6 °C -10.7 °C 34405.1 hPa Calm   2.6 km/h 88 % 0 mm
04:39 -9.6 °C -10.7 °C 34405.1 hPa Calm     88 % 0 mm
04:45 -9.5 °C -10.7 °C 34405.1 hPa North 2.3 km/h 2.6 km/h 87 % 0 mm
04:51 -9.5 °C -10.8 °C 34405.1 hPa North 2.3 km/h 2.6 km/h 86 % 0 mm
04:57 -9.6 °C -10.8 °C 34405.1 hPa Calm     87 % 0 mm
05:03 -9.7 °C -10.9 °C 34405.1 hPa Calm     87 % 0 mm
05:09 -9.8 °C -10.9 °C 34405.1 hPa WNW 2.3 km/h 2.6 km/h 88 % 0 mm
05:15 -9.9 °C -10.9 °C 34405.1 hPa WNW 5.1 km/h 5.1 km/h 89 % 0 mm
05:21 -9.9 °C -10.9 °C 34405.1 hPa Calm     89 % 0 mm
05:27 -9.9 °C -10.9 °C 34405.1 hPa NNW 2.3 km/h 2.6 km/h 89 % 0 mm
05:33 -9.9 °C -10.9 °C 34405.1 hPa Calm   2.6 km/h 89 % 0 mm
05:39 -10 °C -11 °C 34405.1 hPa Calm   2.6 km/h 89 % 0 mm
05:45 -10.1 °C -11 °C 34405.1 hPa Calm     90 % 0 mm
05:51 -10.1 °C -11 °C 34405.1 hPa Calm     90 % 0 mm
05:57 -10.1 °C -11 °C 34405.1 hPa Calm     90 % 0 mm
06:03 -10.1 °C -11.1 °C 34405.1 hPa Calm     89 % 0 mm
06:09 -10.1 °C -11.1 °C 34405.1 hPa North 2.3 km/h 2.6 km/h 89 % 0 mm
06:16 -10.1 °C -11.2 °C 34405.1 hPa Calm   2.6 km/h 88 % 0 mm
06:22 -10.1 °C -11.2 °C 34405.1 hPa Calm     88 % 0 mm
06:28 -10.2 °C -11.2 °C 34418.7 hPa Calm     89 % 0 mm
06:34 -10.3 °C -11.3 °C 34418.7 hPa Calm     89 % 0 mm
06:40 -10.3 °C -11.2 °C 34418.7 hPa Calm     90 % 0 mm
06:46 -10.2 °C -11.1 °C 34418.7 hPa Calm   2.6 km/h 90 % 0 mm
06:52 -10.2 °C -11.1 °C 34418.7 hPa Calm     90 % 0 mm
06:58 -10.2 °C -11.1 °C 34418.7 hPa Calm   2.6 km/h 90 % 0 mm
07:04 -10.2 °C -11.1 °C 34418.7 hPa Calm   2.6 km/h 90 % 0 mm
07:10 -10.1 °C -11 °C 34418.7 hPa North 2.3 km/h 5.1 km/h 90 % 0 mm
07:16 -10.1 °C -11.1 °C 34418.7 hPa NNW 2.3 km/h 5.1 km/h 89 % 0 mm
07:22 -10.1 °C -11 °C 34418.7 hPa North 2.3 km/h 2.6 km/h 90 % 0 mm
07:28 -10.2 °C -11.1 °C 34418.7 hPa North 2.3 km/h 2.6 km/h 90 % 0 mm
07:34 -10.2 °C -11.1 °C 34418.7 hPa NNE 5.1 km/h 5.1 km/h 90 % 0 mm
07:40 -10.1 °C -10.9 °C 34418.7 hPa North 2.3 km/h 2.6 km/h 90 % 0 mm
07:46 -9.8 °C -10.7 °C 34418.7 hPa North 2.3 km/h 2.6 km/h 90 % 0 mm
07:52 -9.3 °C -10.4 °C 34418.7 hPa NNE 2.3 km/h 5.1 km/h 88 % 0 mm
07:59 -9.1 °C -10.3 °C 34418.7 hPa Calm   10.3 km/h 87 % 0 mm
08:05 -8.8 °C -10.1 °C 34418.7 hPa NE 2.3 km/h 7.7 km/h 87 % 0 mm
08:11 -8.7 °C -9.9 °C 34418.7 hPa ENE 5.1 km/h 10.3 km/h 86 % 0 mm
08:17 -8.5 °C -9.8 °C 34418.7 hPa NE 2.3 km/h 10.3 km/h 86 % 0 mm
08:23 -8.3 °C -9.7 °C 34418.7 hPa NE 2.3 km/h 7.7 km/h 85 % 0 mm
08:29 -8.2 °C -9.7 °C 34418.7 hPa NE 2.3 km/h 5.1 km/h 84 % 0 mm
08:35 -7.9 °C -9.7 °C 34418.7 hPa ENE 10.3 km/h 12.9 km/h 82 % 0 mm
08:41 -7.8 °C -9.9 °C 34418.7 hPa ENE 2.3 km/h 7.7 km/h 79 % 0 mm
08:47 -7.6 °C -9.8 °C 34418.7 hPa NNE 2.3 km/h 7.7 km/h 78 % 0 mm
08:53 -7.3 °C -9.7 °C 34418.7 hPa Calm   5.1 km/h 76 % 0 mm
08:59 -7.1 °C -9.7 °C 34418.7 hPa NNE 2.3 km/h 7.7 km/h 74 % 0 mm
09:05 -6.9 °C -9.7 °C 34428.8 hPa ENE 2.3 km/h 5.1 km/h 73 % 0 mm
09:11 -6.8 °C -9.7 °C 34418.7 hPa ENE 2.3 km/h 7.7 km/h 72 % 0 mm
09:17 -6.8 °C -9.7 °C 34418.7 hPa ENE 5.1 km/h 5.1 km/h 72 % 0 mm
09:23 -6.6 °C -9.6 °C 34418.7 hPa NE 2.3 km/h 5.1 km/h 71 % 0 mm
09:29 -6.6 °C -9.9 °C 34418.7 hPa East 5.1 km/h 10.3 km/h 69 % 0 mm
09:35 -6.5 °C -9.7 °C 34428.8 hPa ENE 2.3 km/h 7.7 km/h 70 % 0 mm
09:41 -6.3 °C -9.3 °C 34418.7 hPa ENE 2.3 km/h 5.1 km/h 71 % 0 mm
09:47 -6.1 °C -9.4 °C 34418.7 hPa ENE 5.1 km/h 5.1 km/h 68 % 0 mm
09:53 -6 °C -9.7 °C 34418.7 hPa East 2.3 km/h 7.7 km/h 66 % 0 mm
09:59 -6 °C -9.4 °C 34428.8 hPa Calm   5.1 km/h 68 % 0 mm
10:05 -5.7 °C -9.6 °C 34418.7 hPa East 2.3 km/h 2.6 km/h 64 % 0 mm
10:11 -5.4 °C -9.6 °C 34418.7 hPa Calm   5.1 km/h 62 % 0 mm
10:17 -5.4 °C -9.9 °C 34418.7 hPa Calm   7.7 km/h 60 % 0 mm
10:23 -5.4 °C -9.7 °C 34418.7 hPa NE 5.1 km/h 10.3 km/h 62 % 0 mm
10:29 -5.6 °C -10 °C 34418.7 hPa ENE 2.3 km/h 7.7 km/h 61 % 0 mm
10:35 -5.5 °C -9.7 °C 34418.7 hPa East 10.3 km/h 12.9 km/h 62 % 0 mm
10:41 -5.4 °C -9.5 °C 34418.7 hPa NE 5.1 km/h 12.9 km/h 63 % 0 mm
10:47 -5.2 °C -9.8 °C 34405.1 hPa East 2.3 km/h 12.9 km/h 60 % 0 mm
10:53 -5.2 °C -9.3 °C 34405.1 hPa NE 2.3 km/h 15.6 km/h 63 % 0 mm
10:59 -5.2 °C -9.4 °C 34405.1 hPa ENE 5.1 km/h 10.3 km/h 62 % 0 mm
11:05 -5.1 °C -9.2 °C 34405.1 hPa East 10.3 km/h 10.3 km/h 63 % 0 mm
11:11 -5.1 °C -9.6 °C 34405.1 hPa NNE 12.7 km/h 12.9 km/h 60 % 0 mm
11:17 -5.1 °C -9.3 °C 34405.1 hPa East 2.3 km/h 7.7 km/h 62 % 0 mm
11:23 -5.1 °C -9.4 °C 34405.1 hPa NNW 5.1 km/h 7.7 km/h 61 % 0 mm
11:29 -4.8 °C -9.4 °C 34405.1 hPa ENE 7.6 km/h 10.3 km/h 60 % 0 mm
11:35 -4.8 °C -9.6 °C 34405.1 hPa ENE 10.3 km/h 12.9 km/h 59 % 0 mm
11:41 -4.8 °C -9.1 °C 34405.1 hPa NE 5.1 km/h 15.6 km/h 62 % 0 mm
11:47 -4.7 °C -9.1 °C 34405.1 hPa ENE 10.3 km/h 10.3 km/h 61 % 0 mm
11:53 -4.5 °C -9.2 °C 34405.1 hPa East 2.3 km/h 18.2 km/h 59 % 0 mm
11:59 -4.3 °C -8.8 °C 34405.1 hPa East 7.6 km/h 10.3 km/h 61 % 0 mm
12:05 -4.2 °C -8.8 °C 34405.1 hPa East 2.3 km/h 12.9 km/h 60 % 0 mm
12:11 -4.1 °C -9 °C 34405.1 hPa ESE 7.6 km/h 18.2 km/h 58 % 0 mm
12:17 -4.3 °C -8.9 °C 34405.1 hPa East 2.3 km/h 12.9 km/h 60 % 0 mm
12:23 -4.1 °C -8.7 °C 34405.1 hPa ESE 2.3 km/h 5.1 km/h 60 % 0 mm
12:29 -4 °C -8.6 °C 34405.1 hPa ESE 5.1 km/h 7.7 km/h 60 % 0 mm
12:35 -3.8 °C -8.4 °C 34405.1 hPa East 5.1 km/h 12.9 km/h 60 % 0 mm
12:41 -3.9 °C -8.8 °C 34405.1 hPa East 7.6 km/h 20.8 km/h 58 % 0 mm
12:47 -3.8 °C -8.2 °C 34405.1 hPa ESE 2.3 km/h 15.6 km/h 62 % 0 mm
12:53 -3.8 °C -8.6 °C 34405.1 hPa Calm   10.3 km/h 59 % 0 mm
12:59 -3.6 °C -8.6 °C 34405.1 hPa SE 5.1 km/h 7.7 km/h 58 % 0 mm
13:05 -3.6 °C -9 °C 34405.1 hPa SE 7.6 km/h 10.3 km/h 55 % 0 mm
13:11 -3.7 °C -8.7 °C 34405.1 hPa South 2.3 km/h 7.7 km/h 57 % 0 mm
13:17 -3.3 °C -8.4 °C 34405.1 hPa ESE 5.1 km/h 10.3 km/h 57 % 0 mm
13:23 -3.3 °C -8.6 °C 34405.1 hPa ESE 5.1 km/h 10.3 km/h 56 % 0 mm
13:29 -3.3 °C -8.4 °C 34405.1 hPa SE 7.6 km/h 12.9 km/h 57 % 0 mm
13:35 -3.1 °C -8.2 °C 34405.1 hPa ESE 2.3 km/h 5.1 km/h 57 % 0 mm
13:41 -2.8 °C -7.9 °C 34395 hPa ENE 5.1 km/h 12.9 km/h 57 % 0 mm
13:47 -2.9 °C -8.6 °C 34395 hPa ESE 15.6 km/h 18.2 km/h 54 % 0 mm
13:53 -2.9 °C -8.9 °C 34395 hPa ESE 5.1 km/h 10.3 km/h 52 % 0 mm
13:59 -2.9 °C -8.7 °C 34395 hPa South 7.6 km/h 15.6 km/h 53 % 0 mm
14:05 -2.9 °C -8.4 °C 34395 hPa SE 2.3 km/h 7.7 km/h 55 % 0 mm
14:11 -2.8 °C -8.6 °C 34395 hPa South 7.6 km/h 10.3 km/h 53 % 0 mm
14:17 -2.8 °C -8.4 °C 34395 hPa ESE 5.1 km/h 15.6 km/h 54 % 0 mm
14:23 -2.8 °C -8.9 °C 34384.8 hPa WSW 7.6 km/h 10.3 km/h 51 % 0 mm
14:29 -2.7 °C -8.3 °C 34384.8 hPa SW 2.3 km/h 12.9 km/h 54 % 0 mm
14:35 -2.7 °C -8.5 °C 34384.8 hPa SSW 5.1 km/h 7.7 km/h 53 % 0 mm
14:41 -2.8 °C -8.6 °C 34384.8 hPa ENE 7.6 km/h 12.9 km/h 53 % 0 mm
14:47 -2.8 °C -8.6 °C 34384.8 hPa East 2.3 km/h 12.9 km/h 53 % 0 mm
14:53 -3 °C -8.8 °C 34384.8 hPa ENE 10.3 km/h 15.6 km/h 53 % 0 mm
14:59 -3.2 °C -8.9 °C 34384.8 hPa ENE 2.3 km/h 12.9 km/h 53 % 0 mm
15:05 -3.3 °C -8.9 °C 34384.8 hPa ENE 7.6 km/h 15.6 km/h 54 % 0 mm
15:11 -3.3 °C -9.1 °C 34371.3 hPa East 12.7 km/h 20.8 km/h 53 % 0 mm
15:17 -3.2 °C -8.8 °C 34384.8 hPa ESE 2.3 km/h 7.7 km/h 54 % 0 mm
15:23 -3.3 °C -8.7 °C 34384.8 hPa East 7.6 km/h 12.9 km/h 55 % 0 mm
15:30 -3.4 °C -8.7 °C 34371.3 hPa ESE 2.3 km/h 2.6 km/h 56 % 0 mm
15:36 -3.4 °C -8.7 °C 34371.3 hPa ESE 2.3 km/h 7.7 km/h 56 % 0 mm
15:42 -3.4 °C -8.5 °C 34371.3 hPa ENE 5.1 km/h 10.3 km/h 57 % 0 mm
15:48 -3.2 °C -8.2 °C 34371.3 hPa East 2.3 km/h 2.6 km/h 58 % 0 mm
15:54 -3.2 °C -8.4 °C 34371.3 hPa East 2.3 km/h 5.1 km/h 56 % 0 mm
16:00 -3.4 °C -8.7 °C 34371.3 hPa East 5.1 km/h 12.9 km/h 56 % 0 mm
16:06 -3.6 °C -8.8 °C 34371.3 hPa East 7.6 km/h 18.2 km/h 56 % 0 mm
16:12 -3.6 °C -8.5 °C 34361.1 hPa East 7.6 km/h 12.9 km/h 58 % 0 mm
16:18 -3.5 °C -8.3 °C 34361.1 hPa East 7.6 km/h 7.7 km/h 59 % 0 mm
16:24 -3.2 °C -8.3 °C 34361.1 hPa SSE 2.3 km/h 5.1 km/h 57 % 0 mm
Meteo18
Compliments of Weather Underground - 4 mb

Script developed by  Jim McMurry - jmcmurry@mwt.net Adapted for the template by  Wim van der Kuil - Leuven-Template.eu

You find our weather info also at:

European Weather Network

Weather Underground

Equipment we use:

Weather-station
Davis Vue

Weather-program
Meteobridge

Weather-server
Raspberry PI 2 B+

Provider
1 and 1

Davis Vue

Meteobridge

Raspberry PI 2 B+

1 and 1